Simultaneous Nadir Overpasses (SNOs) Predictions

Prediction of SNOs between LANDSAT-8 and METOP-B Satellite Orbit:

Table of predicted SNOs for the next 14.0 days since TLE Epoch: 8/6/2016
Index Date (LANDSAT-8) Time (LANDSAT-8) Lat,Lon (LANDSAT-8) SZA (LANDSAT-8 ) Date (METOP-B) Time (METOP-B) Lat,Lon (METOP-B) SZA (METOP-B ) Distance(km) Time Diff (sec)
1 08/08/2016 05:09:20 -81.07, -38.14 113.02 08/08/2016 05:08:44 -81.07, -38.05 113.02 1.81 36
2 08/08/2016 05:58:45 81.10, 129.95 67.06 08/08/2016 05:59:23 81.09, 129.81 67.06 2.45 38
3 08/11/2016 00:43:35 -81.08, 28.45 112.17 08/11/2016 00:43:09 -81.07, 28.29 112.20 2.71 26
4 08/11/2016 01:33:00 81.10,-163.48 67.91 08/11/2016 01:33:47 81.10,-163.51 67.92 0.51 47
5 08/13/2016 20:17:49 -81.08, 95.00 111.29 08/13/2016 20:17:32 -81.08, 94.99 111.30 0.25 17
6
